Year,Month,Day,Hour,Minute,Value (Times are PST for temperature in C)
2010,07,16,00,00,14.30
2010,07,16,00,01,14.30
2010,07,16,00,02,14.30
2010,07,16,00,03,14.30
2010,07,16,00,04,14.20
2010,07,16,00,05,14.20
2010,07,16,00,06,14.20
2010,07,16,00,07,14.20
2010,07,16,00,08,14.10
2010,07,16,00,09,14.10
2010,07,16,00,10,14.10
2010,07,16,00,11,14.10
2010,07,16,00,12,14.10
2010,07,16,00,13,14.10
2010,07,16,00,14,14.10
2010,07,16,00,15,14.10
2010,07,16,00,16,14.10
2010,07,16,00,17,14.00
2010,07,16,00,18,14.00
2010,07,16,00,19,14.00
2010,07,16,00,20,13.90
2010,07,16,00,21,13.90
2010,07,16,00,22,13.90
2010,07,16,00,23,13.90
2010,07,16,00,24,13.90
2010,07,16,00,25,13.90
2010,07,16,00,26,13.90
2010,07,16,00,27,13.90
2010,07,16,00,28,13.80
2010,07,16,00,29,13.80
2010,07,16,00,30,13.80
2010,07,16,00,31,13.80
2010,07,16,00,32,13.80
2010,07,16,00,33,13.80
2010,07,16,00,34,13.80
2010,07,16,00,35,13.80
2010,07,16,00,36,13.80
2010,07,16,00,37,13.70
2010,07,16,00,38,13.70
2010,07,16,00,39,13.70
2010,07,16,00,40,13.70
2010,07,16,00,41,13.70
2010,07,16,00,42,13.70
2010,07,16,00,43,13.60
2010,07,16,00,44,13.60
2010,07,16,00,45,13.60
2010,07,16,00,46,13.60
2010,07,16,00,47,13.50
2010,07,16,00,48,13.50
2010,07,16,00,49,13.50
2010,07,16,00,50,13.40
2010,07,16,00,51,13.40
2010,07,16,00,52,13.40
2010,07,16,00,53,13.40
2010,07,16,00,54,13.40
2010,07,16,00,55,13.40
2010,07,16,00,56,13.30
2010,07,16,00,57,13.30
2010,07,16,00,58,13.30
2010,07,16,00,59,13.30
2010,07,16,01,00,13.30
2010,07,16,01,01,13.30
2010,07,16,01,02,13.30
2010,07,16,01,03,13.30
2010,07,16,01,04,13.30
2010,07,16,01,05,13.30
2010,07,16,01,06,13.30
2010,07,16,01,07,13.30
2010,07,16,01,08,13.30
2010,07,16,01,09,13.30
2010,07,16,01,10,13.20
2010,07,16,01,11,13.20
2010,07,16,01,12,13.20
2010,07,16,01,13,13.20
2010,07,16,01,14,13.10
2010,07,16,01,15,13.10
2010,07,16,01,16,13.10
2010,07,16,01,17,13.10
2010,07,16,01,18,13.10
2010,07,16,01,19,13.10
2010,07,16,01,20,13.10
2010,07,16,01,21,13.10
2010,07,16,01,22,13.10
2010,07,16,01,23,13.10
2010,07,16,01,24,13.10
2010,07,16,01,25,13.10
2010,07,16,01,26,13.10
2010,07,16,01,27,13.10
2010,07,16,01,28,13.10
2010,07,16,01,29,13.10
2010,07,16,01,30,13.10
2010,07,16,01,31,13.10
2010,07,16,01,32,13.10
2010,07,16,01,33,13.00
2010,07,16,01,34,13.10
2010,07,16,01,35,13.00
2010,07,16,01,36,13.00
2010,07,16,01,37,13.00
2010,07,16,01,38,13.00
2010,07,16,01,39,12.90
2010,07,16,01,40,12.90
2010,07,16,01,41,12.90
2010,07,16,01,42,12.90
2010,07,16,01,43,12.90
2010,07,16,01,44,12.90
2010,07,16,01,45,12.80
2010,07,16,01,46,12.80
2010,07,16,01,47,12.80
2010,07,16,01,48,12.80
2010,07,16,01,49,12.80
2010,07,16,01,50,12.80
2010,07,16,01,51,12.70
2010,07,16,01,52,12.70
2010,07,16,01,53,12.70
2010,07,16,01,54,12.70
2010,07,16,01,55,12.70
2010,07,16,01,56,12.70
2010,07,16,01,57,12.70
2010,07,16,01,58,12.70
2010,07,16,01,59,12.70
2010,07,16,02,00,12.70
2010,07,16,02,01,12.70
2010,07,16,02,02,12.70
2010,07,16,02,03,12.60
2010,07,16,02,04,12.60
2010,07,16,02,05,12.60
2010,07,16,02,06,12.60
2010,07,16,02,07,12.60
2010,07,16,02,08,12.60
2010,07,16,02,09,12.60
2010,07,16,02,10,12.60
2010,07,16,02,11,12.60
2010,07,16,02,12,12.50
2010,07,16,02,13,12.50
2010,07,16,02,14,12.50
2010,07,16,02,15,12.50
2010,07,16,02,16,12.40
2010,07,16,02,17,12.40
2010,07,16,02,18,12.40
2010,07,16,02,19,12.40
2010,07,16,02,20,12.50
2010,07,16,02,21,12.50
2010,07,16,02,22,12.40
2010,07,16,02,23,12.40
2010,07,16,02,24,12.40
2010,07,16,02,25,12.40
2010,07,16,02,26,12.40
2010,07,16,02,27,12.40
2010,07,16,02,28,12.30
2010,07,16,02,29,12.30
2010,07,16,02,30,12.30
2010,07,16,02,31,12.30
2010,07,16,02,32,12.20
2010,07,16,02,33,12.20
2010,07,16,02,34,12.20
2010,07,16,02,35,12.20
2010,07,16,02,36,12.20
2010,07,16,02,37,12.20
2010,07,16,02,38,12.20
2010,07,16,02,39,12.20
2010,07,16,02,40,12.10
2010,07,16,02,41,12.10
2010,07,16,02,42,12.10
2010,07,16,02,43,12.10
2010,07,16,02,44,12.10
2010,07,16,02,45,12.10
2010,07,16,02,46,12.10
2010,07,16,02,47,12.10
2010,07,16,02,48,12.10
2010,07,16,02,49,12.10
2010,07,16,02,50,12.10
2010,07,16,02,51,12.10
2010,07,16,02,52,12.10
2010,07,16,02,53,12.10
2010,07,16,02,54,12.10
2010,07,16,02,55,12.10
2010,07,16,02,56,12.10
2010,07,16,02,57,12.00
2010,07,16,02,58,12.00
2010,07,16,02,59,12.00
2010,07,16,03,00,12.00
2010,07,16,03,01,11.90
2010,07,16,03,02,11.90
2010,07,16,03,03,11.90
2010,07,16,03,04,11.90
2010,07,16,03,05,11.90
2010,07,16,03,06,11.90
2010,07,16,03,07,11.90
2010,07,16,03,08,11.90
2010,07,16,03,09,11.90
2010,07,16,03,10,11.90
2010,07,16,03,11,11.90
2010,07,16,03,12,11.90
2010,07,16,03,13,11.80
2010,07,16,03,14,11.80
2010,07,16,03,15,11.80
2010,07,16,03,16,11.80
2010,07,16,03,17,11.80
2010,07,16,03,18,11.80
2010,07,16,03,19,11.80
2010,07,16,03,20,11.80
2010,07,16,03,21,11.80
2010,07,16,03,22,11.80
2010,07,16,03,23,11.80
2010,07,16,03,24,11.80
2010,07,16,03,25,11.80
2010,07,16,03,26,11.80
2010,07,16,03,27,11.80
2010,07,16,03,28,11.70
2010,07,16,03,29,11.70
2010,07,16,03,30,11.70
2010,07,16,03,31,11.70
2010,07,16,03,32,11.60
2010,07,16,03,33,11.60
2010,07,16,03,34,11.60
2010,07,16,03,35,11.60
2010,07,16,03,36,11.60
2010,07,16,03,37,11.60
2010,07,16,03,38,11.60
2010,07,16,03,39,11.60
2010,07,16,03,40,11.60
2010,07,16,03,41,11.60
2010,07,16,03,42,11.60
2010,07,16,03,43,11.60
2010,07,16,03,44,11.60
2010,07,16,03,45,11.60
2010,07,16,03,46,11.60
2010,07,16,03,47,11.60
2010,07,16,03,48,11.60
2010,07,16,03,49,11.60
2010,07,16,03,50,11.60
2010,07,16,03,51,11.50
2010,07,16,03,52,11.50
2010,07,16,03,53,11.50
2010,07,16,03,54,11.40
2010,07,16,03,55,11.40
2010,07,16,03,56,11.40
2010,07,16,03,57,11.40
2010,07,16,03,58,11.40
2010,07,16,03,59,11.40
2010,07,16,04,00,11.40
2010,07,16,04,01,11.40
2010,07,16,04,02,11.40
2010,07,16,04,03,11.30
2010,07,16,04,04,11.30
2010,07,16,04,05,11.30
2010,07,16,04,06,11.30
2010,07,16,04,07,11.30
2010,07,16,04,08,11.30
2010,07,16,04,09,11.30
2010,07,16,04,10,11.30
2010,07,16,04,11,11.30
2010,07,16,04,12,11.30
2010,07,16,04,13,11.30
2010,07,16,04,14,11.30
2010,07,16,04,15,11.20
2010,07,16,04,16,11.20
2010,07,16,04,17,11.20
2010,07,16,04,18,11.20
2010,07,16,04,19,11.20
2010,07,16,04,20,11.20
2010,07,16,04,21,11.20
2010,07,16,04,22,11.20
2010,07,16,04,23,11.20
2010,07,16,04,24,11.20
2010,07,16,04,25,11.20
2010,07,16,04,26,11.20
2010,07,16,04,27,11.20
2010,07,16,04,28,11.20
2010,07,16,04,29,11.10
2010,07,16,04,30,11.10
2010,07,16,04,31,11.10
2010,07,16,04,32,11.10
2010,07,16,04,33,11.10
2010,07,16,04,34,11.10
2010,07,16,04,35,11.10
2010,07,16,04,36,11.10
2010,07,16,04,37,11.10
2010,07,16,04,38,11.10
2010,07,16,04,39,11.00
2010,07,16,04,40,11.00
2010,07,16,04,41,11.00
2010,07,16,04,42,11.00
2010,07,16,04,43,10.90
2010,07,16,04,44,10.90
2010,07,16,04,45,10.90
2010,07,16,04,46,10.90
2010,07,16,04,47,10.90
2010,07,16,04,48,10.90
2010,07,16,04,49,10.90
2010,07,16,04,50,10.90
2010,07,16,04,51,10.90
2010,07,16,04,52,10.90
2010,07,16,04,53,10.90
2010,07,16,04,54,10.90
2010,07,16,04,55,10.90
2010,07,16,04,56,10.80
2010,07,16,04,57,10.80
2010,07,16,04,58,10.80
2010,07,16,04,59,10.80
2010,07,16,05,00,10.80
2010,07,16,05,01,10.80
2010,07,16,05,02,10.80
2010,07,16,05,03,10.80
2010,07,16,05,04,10.80
2010,07,16,05,05,10.80
2010,07,16,05,06,10.80
2010,07,16,05,07,10.80
2010,07,16,05,08,10.80
2010,07,16,05,09,10.80
2010,07,16,05,10,10.80
2010,07,16,05,11,10.80
2010,07,16,05,12,10.70
2010,07,16,05,13,10.70
2010,07,16,05,14,10.70
2010,07,16,05,15,10.70
2010,07,16,05,16,10.70
2010,07,16,05,17,10.70
2010,07,16,05,18,10.60
2010,07,16,05,19,10.60
2010,07,16,05,20,10.60
2010,07,16,05,21,10.60
2010,07,16,05,22,10.60
2010,07,16,05,23,10.60
2010,07,16,05,24,10.60
2010,07,16,05,25,10.60
2010,07,16,05,26,10.60
2010,07,16,05,27,10.60
2010,07,16,05,28,10.60
2010,07,16,05,29,10.60
2010,07,16,05,30,10.60
2010,07,16,05,31,10.60
2010,07,16,05,32,10.60
2010,07,16,05,33,10.50
2010,07,16,05,34,10.50
2010,07,16,05,35,10.50
2010,07,16,05,36,10.50
2010,07,16,05,37,10.50
2010,07,16,05,38,10.50
2010,07,16,05,39,10.50
2010,07,16,05,40,10.50
2010,07,16,05,41,10.40
2010,07,16,05,42,10.40
2010,07,16,05,43,10.40
2010,07,16,05,44,10.40
2010,07,16,05,45,10.40
2010,07,16,05,46,10.40
2010,07,16,05,47,10.40
2010,07,16,05,48,10.40
2010,07,16,05,49,10.40
2010,07,16,05,50,10.40
2010,07,16,05,51,10.40
2010,07,16,05,52,10.40
2010,07,16,05,53,10.40
2010,07,16,05,54,10.40
2010,07,16,05,55,10.40
2010,07,16,05,56,10.40
2010,07,16,05,57,10.40
2010,07,16,05,58,10.40
2010,07,16,05,59,10.40
2010,07,16,06,00,10.30
2010,07,16,06,01,10.30
2010,07,16,06,02,10.40
2010,07,16,06,03,10.30
2010,07,16,06,04,10.40
2010,07,16,06,05,10.30
2010,07,16,06,06,10.40
2010,07,16,06,07,10.30
2010,07,16,06,08,10.40
2010,07,16,06,09,10.40
2010,07,16,06,10,10.40
2010,07,16,06,11,10.40
2010,07,16,06,12,10.40
2010,07,16,06,13,10.40
2010,07,16,06,14,10.40
2010,07,16,06,15,10.40
2010,07,16,06,16,10.40
2010,07,16,06,17,10.40
2010,07,16,06,18,10.40
2010,07,16,06,19,10.40
2010,07,16,06,20,10.40
2010,07,16,06,21,10.40
2010,07,16,06,22,10.40
2010,07,16,06,23,10.40
2010,07,16,06,24,10.40
2010,07,16,06,25,10.40
2010,07,16,06,26,10.40
2010,07,16,06,27,10.40
2010,07,16,06,28,10.40
2010,07,16,06,29,10.40
2010,07,16,06,30,10.40
2010,07,16,06,31,10.40
2010,07,16,06,32,10.40
2010,07,16,06,33,10.40
2010,07,16,06,34,10.40
2010,07,16,06,35,10.40
2010,07,16,06,36,10.40
2010,07,16,06,37,10.40
2010,07,16,06,38,10.40
2010,07,16,06,39,10.40
2010,07,16,06,40,10.40
2010,07,16,06,41,10.40
2010,07,16,06,42,10.40
2010,07,16,06,43,10.40
2010,07,16,06,44,10.40
2010,07,16,06,45,10.40
2010,07,16,06,46,10.40
2010,07,16,06,47,10.40
2010,07,16,06,48,10.40
2010,07,16,06,49,10.40
2010,07,16,06,50,10.40
2010,07,16,06,51,10.40
2010,07,16,06,52,10.50
2010,07,16,06,53,10.50
2010,07,16,06,54,10.50
2010,07,16,06,55,10.60
2010,07,16,06,56,10.60
2010,07,16,06,57,10.60
2010,07,16,06,58,10.60
2010,07,16,06,59,10.70
2010,07,16,07,00,10.70
2010,07,16,07,01,10.70
2010,07,16,07,02,10.80
2010,07,16,07,03,10.80
2010,07,16,07,04,10.90
2010,07,16,07,05,11.00
2010,07,16,07,06,11.10
2010,07,16,07,07,11.20
2010,07,16,07,08,11.30
2010,07,16,07,09,11.40
2010,07,16,07,10,11.50
2010,07,16,07,11,11.60
2010,07,16,07,12,11.70
2010,07,16,07,13,11.80
2010,07,16,07,14,11.90
2010,07,16,07,15,12.00
2010,07,16,07,16,12.10
2010,07,16,07,17,12.20
2010,07,16,07,18,12.30
2010,07,16,07,19,12.40
2010,07,16,07,20,12.50
2010,07,16,07,21,12.50
2010,07,16,07,22,12.60
2010,07,16,07,23,12.70
2010,07,16,07,24,12.70
2010,07,16,07,25,12.80
2010,07,16,07,26,12.90
2010,07,16,07,27,12.90
2010,07,16,07,28,13.00
2010,07,16,07,29,13.00
2010,07,16,07,30,13.10
2010,07,16,07,31,13.20
2010,07,16,07,32,13.20
2010,07,16,07,33,13.30
2010,07,16,07,34,13.30
2010,07,16,07,35,13.30
2010,07,16,07,36,13.40
2010,07,16,07,37,13.40
2010,07,16,07,38,13.40
2010,07,16,07,39,13.40
2010,07,16,07,40,13.50
2010,07,16,07,41,13.50
2010,07,16,07,42,13.60
2010,07,16,07,43,13.60
2010,07,16,07,44,13.60
2010,07,16,07,45,13.60
2010,07,16,07,46,13.60
2010,07,16,07,47,13.60
2010,07,16,07,48,13.70
2010,07,16,07,49,13.70
2010,07,16,07,50,13.70
2010,07,16,07,51,13.70
2010,07,16,07,52,13.80
2010,07,16,07,53,13.80
2010,07,16,07,54,13.80
2010,07,16,07,55,13.80
2010,07,16,07,56,13.90
2010,07,16,07,57,13.90
2010,07,16,07,58,13.90
2010,07,16,07,59,13.90
2010,07,16,08,00,13.90
2010,07,16,08,01,13.90
2010,07,16,08,02,13.90
2010,07,16,08,03,13.90
2010,07,16,08,04,13.90
2010,07,16,08,05,13.90
2010,07,16,08,06,13.90
2010,07,16,08,07,13.90
2010,07,16,08,08,13.90
2010,07,16,08,09,13.90
2010,07,16,08,10,14.00
2010,07,16,08,11,14.00
2010,07,16,08,12,14.10
2010,07,16,08,13,14.10
2010,07,16,08,14,14.10
2010,07,16,08,15,14.10
2010,07,16,08,16,14.10
2010,07,16,08,17,14.10
2010,07,16,08,18,14.20
2010,07,16,08,19,14.20
2010,07,16,08,20,14.20
2010,07,16,08,21,14.20
2010,07,16,08,22,14.30
2010,07,16,08,23,14.30
2010,07,16,08,24,14.30
2010,07,16,08,25,14.30
2010,07,16,08,26,14.40
2010,07,16,08,27,14.40
2010,07,16,08,28,14.40
2010,07,16,08,29,14.50
2010,07,16,08,30,14.50
2010,07,16,08,31,14.50
2010,07,16,08,32,14.60
2010,07,16,08,33,14.60
2010,07,16,08,34,14.60
2010,07,16,08,35,14.60
2010,07,16,08,36,14.70
2010,07,16,08,37,14.70
2010,07,16,08,38,14.80
2010,07,16,08,39,14.80
2010,07,16,08,40,14.80
2010,07,16,08,41,14.90
2010,07,16,08,42,15.00
2010,07,16,08,43,15.00
2010,07,16,08,44,15.00
2010,07,16,08,45,15.00
2010,07,16,08,46,15.20
2010,07,16,08,47,15.30
2010,07,16,08,48,15.30
2010,07,16,08,49,15.40
2010,07,16,08,50,15.50
2010,07,16,08,51,15.50
2010,07,16,08,52,15.50
2010,07,16,08,53,15.60
2010,07,16,08,54,15.60
2010,07,16,08,55,15.60
2010,07,16,08,56,15.60
2010,07,16,08,57,15.60
2010,07,16,08,58,15.60
2010,07,16,08,59,15.60
2010,07,16,09,00,15.60
2010,07,16,09,01,15.60
2010,07,16,09,02,15.60
2010,07,16,09,03,15.70
2010,07,16,09,04,15.70
2010,07,16,09,05,15.70
2010,07,16,09,06,15.70
2010,07,16,09,07,15.70
2010,07,16,09,08,15.60
2010,07,16,09,09,15.60
2010,07,16,09,10,15.70
2010,07,16,09,11,15.70
2010,07,16,09,12,15.60
2010,07,16,09,13,15.60
2010,07,16,09,14,15.60
2010,07,16,09,15,15.60
2010,07,16,09,16,15.60
2010,07,16,09,17,15.60
2010,07,16,09,18,15.60
2010,07,16,09,19,15.50
2010,07,16,09,20,15.50
2010,07,16,09,21,15.50
2010,07,16,09,22,15.50
2010,07,16,09,23,15.50
2010,07,16,09,24,15.40
2010,07,16,09,25,15.40
2010,07,16,09,26,15.40
2010,07,16,09,27,15.30
2010,07,16,09,28,15.30
2010,07,16,09,29,15.30
2010,07,16,09,30,15.30
2010,07,16,09,31,15.40
2010,07,16,09,32,15.50
2010,07,16,09,33,15.50
2010,07,16,09,34,15.60
2010,07,16,09,35,15.70
2010,07,16,09,36,15.70
2010,07,16,09,37,15.80
2010,07,16,09,38,15.80
2010,07,16,09,39,15.90
2010,07,16,09,40,16.00
2010,07,16,09,41,16.00
2010,07,16,09,42,16.00
2010,07,16,09,43,16.00
2010,07,16,09,44,16.00
2010,07,16,09,45,15.90
2010,07,16,09,46,16.00
2010,07,16,09,47,16.00
2010,07,16,09,48,16.10
2010,07,16,09,49,16.10
2010,07,16,09,50,16.20
2010,07,16,09,51,16.20
2010,07,16,09,52,16.10
2010,07,16,09,53,16.10
2010,07,16,09,54,16.10
2010,07,16,09,55,16.10
2010,07,16,09,56,16.20
2010,07,16,09,57,16.30
2010,07,16,09,58,16.30
2010,07,16,09,59,16.20
2010,07,16,10,00,16.20
2010,07,16,10,01,16.20
2010,07,16,10,02,16.20
2010,07,16,10,03,16.20
2010,07,16,10,04,16.20
2010,07,16,10,05,16.20
2010,07,16,10,06,16.20
2010,07,16,10,07,16.30
2010,07,16,10,08,16.30
2010,07,16,10,09,16.40
2010,07,16,10,10,16.40
2010,07,16,10,11,16.50
2010,07,16,10,12,16.50
2010,07,16,10,13,16.50
2010,07,16,10,14,16.50
2010,07,16,10,15,16.50
2010,07,16,10,16,16.60
2010,07,16,10,17,16.60
2010,07,16,10,18,16.70
2010,07,16,10,19,16.70
2010,07,16,10,20,16.80
2010,07,16,10,21,16.80
2010,07,16,10,22,16.80
2010,07,16,10,23,16.80
2010,07,16,10,24,16.90
2010,07,16,10,25,17.00
2010,07,16,10,26,17.00
2010,07,16,10,27,17.20
2010,07,16,10,28,17.20
2010,07,16,10,29,17.30
2010,07,16,10,30,17.30
2010,07,16,10,31,17.30
2010,07,16,10,32,17.30
2010,07,16,10,33,17.30
2010,07,16,10,34,17.30
2010,07,16,10,35,17.30
2010,07,16,10,36,17.40
2010,07,16,10,37,17.40
2010,07,16,10,38,17.40
2010,07,16,10,39,17.40
2010,07,16,10,40,17.40
2010,07,16,10,41,17.40
2010,07,16,10,42,17.30
2010,07,16,10,43,17.30
2010,07,16,10,44,17.30
2010,07,16,10,45,17.40
2010,07,16,10,46,17.40
2010,07,16,10,47,17.50
2010,07,16,10,48,17.50
2010,07,16,10,49,17.60
2010,07,16,10,50,17.60
2010,07,16,10,51,17.60
2010,07,16,10,52,17.70
2010,07,16,10,53,17.70
2010,07,16,10,54,17.80
2010,07,16,10,55,17.80
2010,07,16,10,56,17.90
2010,07,16,10,57,17.90
2010,07,16,10,58,18.00
2010,07,16,10,59,18.00
2010,07,16,11,00,18.00
2010,07,16,11,01,17.90
2010,07,16,11,02,17.90
2010,07,16,11,03,17.90
2010,07,16,11,04,17.90
2010,07,16,11,05,17.90
2010,07,16,11,06,18.00
2010,07,16,11,07,18.10
2010,07,16,11,08,18.20
2010,07,16,11,09,18.30
2010,07,16,11,10,18.30
2010,07,16,11,11,18.40
2010,07,16,11,12,18.40
2010,07,16,11,13,18.40
2010,07,16,11,14,18.50
2010,07,16,11,15,18.60
2010,07,16,11,16,18.60
2010,07,16,11,17,18.70
2010,07,16,11,18,18.70
2010,07,16,11,19,18.80
2010,07,16,11,20,18.90
2010,07,16,11,21,18.90
2010,07,16,11,22,18.90
2010,07,16,11,23,18.90
2010,07,16,11,24,18.90
2010,07,16,11,25,18.90
2010,07,16,11,26,18.90
2010,07,16,11,27,18.90
2010,07,16,11,28,19.00
2010,07,16,11,29,19.10
2010,07,16,11,30,19.20
2010,07,16,11,31,19.20
2010,07,16,11,32,19.30
2010,07,16,11,33,19.30
2010,07,16,11,34,19.30
2010,07,16,11,35,19.30
2010,07,16,11,36,19.30
2010,07,16,11,37,19.30
2010,07,16,11,38,19.30
2010,07,16,11,39,19.30
2010,07,16,11,40,19.20
2010,07,16,11,41,19.10
2010,07,16,11,42,19.10
2010,07,16,11,43,19.00
2010,07,16,11,44,19.10
2010,07,16,11,45,19.10
2010,07,16,11,46,19.10
2010,07,16,11,47,19.10
2010,07,16,11,48,19.10
2010,07,16,11,49,19.10
2010,07,16,11,50,19.10
2010,07,16,11,51,19.10
2010,07,16,11,52,19.10
2010,07,16,11,53,19.00
2010,07,16,11,54,18.90
2010,07,16,11,55,18.80
2010,07,16,11,56,18.80
2010,07,16,11,57,18.80
2010,07,16,11,58,18.70
2010,07,16,11,59,18.60
2010,07,16,12,00,18.60
2010,07,16,12,01,18.60
2010,07,16,12,02,18.60
2010,07,16,12,03,18.50
2010,07,16,12,04,18.60
2010,07,16,12,05,18.60
2010,07,16,12,06,18.60
2010,07,16,12,07,18.60
2010,07,16,12,08,18.60
2010,07,16,12,09,18.70
2010,07,16,12,10,18.70
2010,07,16,12,11,18.80
2010,07,16,12,12,18.80
2010,07,16,12,13,18.70
2010,07,16,12,14,18.70
2010,07,16,12,15,18.70
2010,07,16,12,16,18.60
2010,07,16,12,17,18.60
2010,07,16,12,18,18.60
2010,07,16,12,19,18.60
2010,07,16,12,20,18.60
2010,07,16,12,21,18.60
2010,07,16,12,22,18.70
2010,07,16,12,23,18.80
2010,07,16,12,24,18.80
2010,07,16,12,25,18.70
2010,07,16,12,26,18.70
2010,07,16,12,27,18.60
2010,07,16,12,28,18.60
2010,07,16,12,29,18.70
2010,07,16,12,30,18.70
2010,07,16,12,31,18.70
2010,07,16,12,32,18.70
2010,07,16,12,33,18.80
2010,07,16,12,34,18.80
2010,07,16,12,35,18.90
2010,07,16,12,36,18.90
2010,07,16,12,37,18.80
2010,07,16,12,38,18.80
2010,07,16,12,39,18.80
2010,07,16,12,40,18.80
2010,07,16,12,41,18.80
2010,07,16,12,42,18.80
2010,07,16,12,43,18.80
2010,07,16,12,44,18.80
2010,07,16,12,45,18.80
2010,07,16,12,46,18.90
2010,07,16,12,47,18.90
2010,07,16,12,48,18.80
2010,07,16,12,49,18.80
2010,07,16,12,50,18.70
2010,07,16,12,51,18.70
2010,07,16,12,52,18.60
2010,07,16,12,53,18.60
2010,07,16,12,54,18.60
2010,07,16,12,55,18.70
2010,07,16,12,56,18.70
2010,07,16,12,57,18.70
2010,07,16,12,58,18.60
2010,07,16,12,59,18.60
2010,07,16,13,00,18.50
2010,07,16,13,01,18.50
2010,07,16,13,02,18.40
2010,07,16,13,03,18.40
2010,07,16,13,04,18.30
2010,07,16,13,05,18.30
2010,07,16,13,06,18.40
2010,07,16,13,07,18.40
2010,07,16,13,08,18.40
2010,07,16,13,09,18.40
2010,07,16,13,10,18.30
2010,07,16,13,11,18.40
2010,07,16,13,12,18.40
2010,07,16,13,13,18.50
2010,07,16,13,14,18.50
2010,07,16,13,15,18.40
2010,07,16,13,16,18.30
2010,07,16,13,17,18.30
2010,07,16,13,18,18.30
2010,07,16,13,19,18.30
2010,07,16,13,20,18.30
2010,07,16,13,21,18.30
2010,07,16,13,22,18.30
2010,07,16,13,23,18.30
2010,07,16,13,24,18.30
2010,07,16,13,25,18.30
2010,07,16,13,26,18.40
2010,07,16,13,27,18.50
2010,07,16,13,28,18.40
2010,07,16,13,29,18.40
2010,07,16,13,30,18.40
2010,07,16,13,31,18.40
2010,07,16,13,32,18.50
2010,07,16,13,33,18.60
2010,07,16,13,34,18.50
2010,07,16,13,35,18.60
2010,07,16,13,36,18.50
2010,07,16,13,37,18.50
2010,07,16,13,38,18.50
2010,07,16,13,39,18.60
2010,07,16,13,40,18.70
2010,07,16,13,41,18.80
2010,07,16,13,42,18.90
2010,07,16,13,43,19.00
2010,07,16,13,44,19.10
2010,07,16,13,45,19.10
2010,07,16,13,46,19.10
2010,07,16,13,47,19.10
2010,07,16,13,48,19.20
2010,07,16,13,49,19.30
2010,07,16,13,50,19.40
2010,07,16,13,51,19.40
2010,07,16,13,52,19.30
2010,07,16,13,53,19.30
2010,07,16,13,54,19.30
2010,07,16,13,55,19.30
2010,07,16,13,56,19.10
2010,07,16,13,57,19.00
2010,07,16,13,58,18.90
2010,07,16,13,59,18.80
2010,07,16,14,00,18.70
2010,07,16,14,01,18.60
2010,07,16,14,02,18.60
2010,07,16,14,03,18.50
2010,07,16,14,04,18.50
2010,07,16,14,05,18.50
2010,07,16,14,06,18.60
2010,07,16,14,07,18.50
2010,07,16,14,08,18.50
2010,07,16,14,09,18.50
2010,07,16,14,10,18.40
2010,07,16,14,11,18.30
2010,07,16,14,12,18.20
2010,07,16,14,13,18.20
2010,07,16,14,14,18.20
2010,07,16,14,15,18.20
2010,07,16,14,16,18.30
2010,07,16,14,17,18.30
2010,07,16,14,18,18.30
2010,07,16,14,19,18.40
2010,07,16,14,20,18.40
2010,07,16,14,21,18.50
2010,07,16,14,22,18.60
2010,07,16,14,23,18.70
2010,07,16,14,24,18.80
2010,07,16,14,25,18.90
2010,07,16,14,26,19.00
2010,07,16,14,27,19.10
2010,07,16,14,28,19.10
2010,07,16,14,29,19.10
2010,07,16,14,30,19.10
2010,07,16,14,31,19.10
2010,07,16,14,32,19.10
2010,07,16,14,33,19.10
2010,07,16,14,34,19.10
2010,07,16,14,35,19.10
2010,07,16,14,36,19.10
2010,07,16,14,37,19.10
2010,07,16,14,38,19.00
2010,07,16,14,39,19.00
2010,07,16,14,40,19.10
2010,07,16,14,41,19.10
2010,07,16,14,42,19.10
2010,07,16,14,43,19.10
2010,07,16,14,44,19.00
2010,07,16,14,45,19.00
2010,07,16,14,46,19.00
2010,07,16,14,47,19.10
2010,07,16,14,48,19.10
2010,07,16,14,49,19.10
2010,07,16,14,50,19.00
2010,07,16,14,51,18.90
2010,07,16,14,52,18.90
2010,07,16,14,53,18.90
2010,07,16,14,54,19.00
2010,07,16,14,55,19.10
2010,07,16,14,56,19.20
2010,07,16,14,57,19.30
2010,07,16,14,58,19.30
2010,07,16,14,59,19.30
2010,07,16,15,00,19.30
2010,07,16,15,01,19.20
2010,07,16,15,02,19.20
2010,07,16,15,03,19.20
2010,07,16,15,04,19.30
2010,07,16,15,05,19.20
2010,07,16,15,06,19.20
2010,07,16,15,07,19.10
2010,07,16,15,08,19.10
2010,07,16,15,09,19.10
2010,07,16,15,10,19.20
2010,07,16,15,11,19.20
2010,07,16,15,12,19.30
2010,07,16,15,13,19.30
2010,07,16,15,14,19.40
2010,07,16,15,15,19.40
2010,07,16,15,16,19.40
2010,07,16,15,17,19.40
2010,07,16,15,18,19.40
2010,07,16,15,19,19.40
2010,07,16,15,20,19.40
2010,07,16,15,21,19.40
2010,07,16,15,22,19.40
2010,07,16,15,23,19.40
2010,07,16,15,24,19.40
2010,07,16,15,25,19.40
2010,07,16,15,26,19.30
2010,07,16,15,27,19.30
2010,07,16,15,28,19.30
2010,07,16,15,29,19.30
2010,07,16,15,30,19.30
2010,07,16,15,31,19.40
2010,07,16,15,32,19.50
2010,07,16,15,33,19.50
2010,07,16,15,34,19.50
2010,07,16,15,35,19.50
2010,07,16,15,36,19.40
2010,07,16,15,37,19.30
2010,07,16,15,38,19.30
2010,07,16,15,39,19.30
2010,07,16,15,40,19.40
2010,07,16,15,41,19.40
2010,07,16,15,42,19.40
2010,07,16,15,43,19.40
2010,07,16,15,44,19.40
2010,07,16,15,45,19.40
2010,07,16,15,46,19.40
2010,07,16,15,47,19.40
2010,07,16,15,48,19.30
2010,07,16,15,49,19.20
2010,07,16,15,50,19.20
2010,07,16,15,51,19.10
2010,07,16,15,52,19.00
2010,07,16,15,53,18.90
2010,07,16,15,54,18.90
2010,07,16,15,55,19.00
2010,07,16,15,56,19.00
2010,07,16,15,57,19.10
2010,07,16,15,58,19.20
2010,07,16,15,59,19.40
2010,07,16,16,00,19.40
2010,07,16,16,01,19.40
2010,07,16,16,02,19.50
2010,07,16,16,03,19.50
2010,07,16,16,04,19.50
2010,07,16,16,05,19.50
2010,07,16,16,06,19.50
2010,07,16,16,07,19.50
2010,07,16,16,08,19.50
2010,07,16,16,09,19.60
2010,07,16,16,10,19.60
2010,07,16,16,11,19.60
2010,07,16,16,12,19.60
2010,07,16,16,13,19.60
2010,07,16,16,14,19.60
2010,07,16,16,15,19.60
2010,07,16,16,16,19.60
2010,07,16,16,17,19.50
2010,07,16,16,18,19.50
2010,07,16,16,19,19.50
2010,07,16,16,20,19.50
2010,07,16,16,21,19.40
2010,07,16,16,22,19.30
2010,07,16,16,23,19.30
2010,07,16,16,24,19.30
2010,07,16,16,25,19.30
2010,07,16,16,26,19.40
2010,07,16,16,27,19.50
2010,07,16,16,28,19.50
2010,07,16,16,29,19.50
2010,07,16,16,30,19.60
2010,07,16,16,31,19.70
2010,07,16,16,32,19.70
2010,07,16,16,33,19.70
2010,07,16,16,34,19.80
2010,07,16,16,35,19.80
2010,07,16,16,36,19.90
2010,07,16,16,37,19.90
2010,07,16,16,38,20.00
2010,07,16,16,39,20.00
2010,07,16,16,40,20.00
2010,07,16,16,41,20.00
2010,07,16,16,42,19.90
2010,07,16,16,43,19.90
2010,07,16,16,44,19.90
2010,07,16,16,45,19.90
2010,07,16,16,46,19.90
2010,07,16,16,47,19.90
2010,07,16,16,48,20.00
2010,07,16,16,49,20.00
2010,07,16,16,50,20.00
2010,07,16,16,51,20.10
2010,07,16,16,52,20.10
2010,07,16,16,53,20.10
2010,07,16,16,54,20.20
2010,07,16,16,55,20.20
2010,07,16,16,56,20.30
2010,07,16,16,57,20.30
2010,07,16,16,58,20.30
2010,07,16,16,59,20.30
2010,07,16,17,00,20.40
2010,07,16,17,01,20.40
2010,07,16,17,02,20.40
2010,07,16,17,03,20.40
2010,07,16,17,04,20.30
2010,07,16,17,05,20.30
2010,07,16,17,06,20.20
2010,07,16,17,07,20.20
2010,07,16,17,08,20.20
2010,07,16,17,09,20.30
2010,07,16,17,10,20.30
2010,07,16,17,11,20.40
2010,07,16,17,12,20.40
2010,07,16,17,13,20.40
2010,07,16,17,14,20.40
2010,07,16,17,15,20.40
2010,07,16,17,16,20.30
2010,07,16,17,17,20.20
2010,07,16,17,18,20.10
2010,07,16,17,19,20.10